LA5NNA Weather Reports


time (UTC)temp
C
wind
direction
speed
KPH
gust
KPH
rain 1hr
cm
rain 24hr
cm
rain mn
cm
humidity
%
barometer
mb
20260506202007 8 20 4.8 14.5 0.00 0.00 0.00 54 1012.0
20260506201507 8 5 8.0 22.5 0.00 0.00 0.00 55 1012.0
20260506200507 8 30 8.0 14.5 0.00 0.00 0.00 55 1012.1
20260506200011 8 33 4.8 16.1 0.00 0.00 0.00 55 1012.0
20260506195508 8 14 9.7 19.3 0.00 0.00 0.00 55 1012.0
20260506195007 8 27 4.8 12.9 0.00 0.00 0.00 56 1011.9
20260506194008 8 354 6.4 16.1 0.00 0.00 0.00 58 1011.7
20260506192507 8 323 1.6 11.3 0.00 0.00 0.00 58 1011.6
20260506192007 8 324 8.0 16.1 0.00 0.00 0.00 58 1011.5
20260506191507 8 311 11.3 19.3 0.00 0.00 0.00 58 1011.4
20260506191007 8 309 14.5 19.3 0.00 0.00 0.00 58 1011.5
20260506190507 8 308 12.9 20.9 0.00 0.00 0.00 58 1011.5
20260506190011 8 308 11.3 16.1 0.00 0.00 0.00 58 1011.4
20260506185507 8 306 12.9 20.9 0.00 0.00 0.00 57 1011.3
20260506185007 8 308 12.9 19.3 0.00 0.00 0.00 57 1011.4
20260506184507 8 302 12.9 22.5 0.00 0.00 0.00 56 1011.4
20260506184007 8 303 16.1 22.5 0.00 0.00 0.00 56 1011.3
20260506183011 8 308 16.1 24.1 0.00 0.00 0.00 56 1011.2
20260506182507 8 300 17.7 24.1 0.00 0.00 0.00 56 1011.1
20260506182007 9 301 16.1 24.1 0.00 0.00 0.00 56 1011.1
20260506181507 9 303 17.7 27.4 0.00 0.00 0.00 56 1011.1
20260506180011 9 301 19.3 27.4 0.00 0.00 0.00 57 1011.0
20260506175507 9 310 19.3 27.4 0.00 0.00 0.00 57 1011.0
20260506175007 9 307 19.3 29.0 0.00 0.00 0.00 57 1011.0
20260506174507 9 311 17.7 29.0 0.00 0.00 0.00 57 1011.0
20260506174007 9 304 22.5 33.8 0.00 0.00 0.00 57 1010.9
20260506173507 9 303 19.3 27.4 0.00 0.00 0.00 57 1011.0
20260506173011 9 305 20.9 33.8 0.00 0.00 0.00 58 1011.0
20260506172507 9 307 20.9 33.8 0.00 0.00 0.00 58 1010.9
20260506172007 9 298 22.5 33.8 0.00 0.00 0.00 58 1010.8
20260506171507 9 305 25.7 40.2 0.00 0.00 0.00 58 1010.8
20260506171007 9 304 24.1 40.2 0.00 0.00 0.00 59 1010.8
20260506170507 9 294 27.4 45.1 0.00 0.00 0.00 59 1010.7
20260506170011 9 299 25.7 41.8 0.00 0.00 0.00 59 1010.8
20260506165507 9 302 27.4 40.2 0.00 0.00 0.00 59 1010.8
20260506164007 9 296 30.6 45.1 0.00 0.00 0.00 59 1010.9
20260506163507 9 298 29.0 38.6 0.00 0.00 0.00 59 1011.0
20260506163011 9 300 29.0 40.2 0.00 0.00 0.00 59 1011.0
20260506162507 9 299 29.0 40.2 0.00 0.00 0.00 59 1011.0
20260506161507 9 304 32.2 45.1 0.00 0.00 0.00 59 1011.0
20260506161007 9 294 32.2 46.7 0.00 0.00 0.00 59 1011.0
20260506160507 9 307 27.4 49.9 0.00 0.00 0.00 59 1011.0
20260506160010 9 304 32.2 48.3 0.00 0.00 0.00 59 1011.1
20260506155507 9 298 32.2 41.8 0.00 0.00 0.00 60 1010.9
20260506155007 10 301 35.4 41.8 0.00 0.00 0.00 60 1011.1
20260506154007 10 299 29.0 41.8 0.00 0.00 0.00 60 1011.0
20260506153507 10 298 32.2 46.7 0.00 0.00 0.00 60 1011.1
20260506153011 10 300 29.0 45.1 0.00 0.00 0.00 59 1011.0
20260506152507 10 302 29.0 40.2 0.00 0.00 0.00 61 1011.0
20260506152007 10 293 30.6 40.2 0.00 0.00 0.00 60 1010.9
20260506151507 10 303 29.0 45.1 0.00 0.00 0.00 61 1011.1
20260506151006 10 299 32.2 41.8 0.00 0.00 0.00 61 1011.0
20260506150506 10 300 27.4 37.0 0.00 0.00 0.00 62 1011.1
20260506150010 10 290 27.4 38.6 0.00 0.00 0.00 62 1011.0
20260506145506 10 283 24.1 37.0 0.00 0.00 0.00 63 1011.1
20260506144507 10 284 22.5 40.2 0.00 0.00 0.00 63 1011.2
20260506144007 10 284 25.7 45.1 0.00 0.00 0.00 63 1011.2
20260506143506 10 282 22.5 37.0 0.00 0.00 0.00 62 1011.2
20260506143011 10 287 27.4 37.0 0.00 0.00 0.00 62 1011.3
20260506142507 10 289 27.4 38.6 0.00 0.00 0.00 62 1011.3
20260506142007 10 288 25.7 40.2 0.00 0.00 0.00 62 1011.4
20260506141506 10 280 25.7 41.8 0.00 0.00 0.00 62 1011.3
20260506141007 10 293 32.2 41.8 0.00 0.00 0.00 62 1011.3
20260506140507 10 291 29.0 40.2 0.00 0.00 0.00 63 1011.4
20260506140010 10 284 22.5 37.0 0.00 0.00 0.00 63 1011.5
20260506135506 10 296 25.7 40.2 0.00 0.00 0.00 64 1011.5
20260506135007 10 280 22.5 37.0 0.00 0.00 0.00 64 1011.4
20260506134507 10 281 24.1 40.2 0.00 0.00 0.00 64 1011.5
20260506133506 10 271 24.1 37.0 0.00 0.00 0.00 65 1011.5
20260506133011 10 271 25.7 45.1 0.00 0.00 0.00 65 1011.5
20260506132006 10 267 25.7 37.0 0.00 0.00 0.00 65 1011.6
20260506131006 10 264 25.7 37.0 0.00 0.00 0.00 65 1011.7
20260506130507 10 262 22.5 45.1 0.00 0.00 0.00 65 1011.7
20260506130010 10 269 24.1 37.0 0.00 0.00 0.00 65 1011.7
20260506125506 10 271 27.4 37.0 0.00 0.00 0.00 66 1011.7
20260506125322 10 273 22.5 33.8 0.00 0.00 0.00 66 1011.7
20260506124506 10 267 25.7 38.6 0.00 0.00 0.00 66 1011.8
20260506124006 10 275 27.4 40.2 0.00 0.00 0.00 67 1011.8
20260506123506 10 271 24.1 35.4 0.00 0.00 0.00 67 1011.8
20260506123011 10 269 22.5 35.4 0.00 0.00 0.00 67 1011.8
20260506122506 10 262 22.5 38.6 0.00 0.00 0.00 67 1011.9
20260506122006 10 270 25.7 40.2 0.00 0.00 0.00 66 1011.8
20260506121506 10 272 27.4 41.8 0.00 0.00 0.00 67 1011.8
20260506121006 10 261 22.5 35.4 0.00 0.00 0.00 67 1011.8
20260506120010 10 259 22.5 35.4 0.00 0.00 0.00 66 1012.0
20260506115506 10 264 24.1 37.0 0.00 0.00 0.00 66 1012.1
20260506115006 10 261 24.1 35.4 0.00 0.00 0.00 66 1012.2
20260506114507 10 264 25.7 38.6 0.00 0.00 0.00 66 1012.1
20260506114007 9 262 25.7 38.6 0.00 0.00 0.00 66 1012.1
20260506113506 9 261 24.1 37.0 0.00 0.00 0.00 66 1012.0
20260506112506 9 264 25.7 37.0 0.00 0.00 0.00 65 1012.1
20260506112006 9 270 27.4 38.6 0.00 0.00 0.00 65 1012.0
20260506111506 9 273 25.7 37.0 0.00 0.00 0.00 65 1012.1
20260506111006 9 270 25.7 37.0 0.00 0.00 0.00 65 1012.1
20260506110506 9 267 25.7 38.6 0.00 0.00 0.00 64 1012.1
20260506110010 9 269 22.5 35.4 0.00 0.00 0.00 64 1012.2
20260506105506 9 261 20.9 35.4 0.00 0.00 0.00 64 1012.4
20260506105006 9 262 22.5 32.2 0.00 0.00 0.00 64 1012.2
20260506104007 9 262 20.9 33.8 0.00 0.00 0.00 62 1012.4
20260506103506 9 263 22.5 33.8 0.00 0.00 0.00 62 1012.4
20260506102507 9 263 19.3 32.2 0.00 0.00 0.00 62 1012.5
20260506102006 9 265 19.3 29.0 0.00 0.00 0.00 62 1012.5
20260506101506 9 262 19.3 32.2 0.00 0.00 0.00 60 1012.5
20260506101006 9 260 16.1 29.0 0.00 0.00 0.00 61 1012.6
20260506100009 8 263 16.1 25.7 0.00 0.00 0.00 61 1012.6
20260506095506 8 268 16.1 25.7 0.00 0.00 0.00 60 1012.6
20260506095006 8 262 16.1 24.1 0.00 0.00 0.00 60 1012.6
20260506094506 8 255 14.5 25.7 0.00 0.00 0.00 60 1012.6
20260506093507 8 256 12.9 22.5 0.00 0.00 0.00 59 1012.7
20260506093010 8 261 14.5 22.5 0.00 0.00 0.00 59 1012.7
20260506092506 8 256 9.7 20.9 0.00 0.00 0.00 57 1012.6
20260506092006 8 233 8.0 14.5 0.00 0.00 0.00 57 1012.7
20260506091506 8 209 8.0 19.3 0.00 0.00 0.00 57 1012.7
20260506091006 8 194 11.3 20.9 0.00 0.00 0.00 58 1012.7
20260506090506 8 220 4.8 19.3 0.00 0.00 0.00 58 1012.7
20260506090009 8 260 9.7 19.3 0.00 0.00 0.00 58 1012.7
20260506085506 8 245 6.4 14.5 0.00 0.00 0.00 58 1012.7
20260506085007 8 278 8.0 19.3 0.00 0.00 0.00 58 1012.7
20260506084006 8 266 12.9 20.9 0.00 0.00 0.00 59 1012.7
20260506083010 7 260 9.7 19.3 0.00 0.00 0.00 59 1012.7
20260506082506 7 272 9.7 14.5 0.00 0.00 0.00 59 1012.7
20260506082006 7 270 9.7 14.5 0.00 0.00 0.00 60 1012.7
20260506081506 7 261 8.0 14.5 0.00 0.00 0.00 61 1012.7
20260506081006 7 280 8.0 14.5 0.00 0.00 0.00 61 1012.7
20260506080506 7 269 6.4 14.5 0.00 0.00 0.00 61 1012.6
20260506073509 6 308 8.0 11.3 0.00 0.00 0.00 63 1012.7
20260506072508 5 321 4.8 11.3 0.00 0.00 0.00 63 1012.7
20260506072008 5 328 3.2 12.9 0.00 0.00 0.00 64 1012.7
20260506071508 5 6 4.8 12.9 0.00 0.00 0.00 64 1012.8
20260506071008 5 7 4.8 12.9 0.00 0.00 0.00 64 1012.8
20260506070508 5 339 4.8 12.9 0.00 0.00 0.00 65 1012.7
20260506062008 3 25 4.8 11.3 0.00 0.00 0.00 67 1012.8
20260506061508 3 5 3.2 9.7 0.00 0.00 0.00 67 1012.7
20260506061008 3 355 6.4 12.9 0.00 0.00 0.00 67 1012.7
20260506060509 3 328 3.2 11.3 0.00 0.00 0.00 67 1012.8
20260506050509 3 32 3.2 8.0 0.00 0.00 0.00 67 1013.0
20260506045008 3 13 4.8 9.7 0.00 0.00 0.00 67 1012.8
20260506044508 3 39 4.8 9.7 0.00 0.00 0.00 66 1012.9
20260506044008 3 58 3.2 4.8 0.00 0.00 0.00 66 1012.9
20260506043508 3 52 3.2 4.8 0.00 0.00 0.00 66 1012.9
20260506042008 3 45 3.2 8.0 0.00 0.00 0.00 66 1012.9
20260506041508 3 54 3.2 8.0 0.00 0.00 0.00 66 1012.9
20260506041008 3 51 3.2 4.8 0.00 0.00 0.00 66 1012.9
20260506040508 3 66 3.2 8.0 0.00 0.00 0.00 66 1012.8
20260506040012 3 68 4.8 8.0 0.00 0.00 0.00 66 1012.8
20260506035508 3 52 3.2 4.8 0.00 0.00 0.00 66 1012.8
20260506035008 3 26 3.2 8.0 0.00 0.00 0.00 66 1012.8
20260506034508 3 61 3.2 4.8 0.00 0.00 0.00 66 1012.7
20260506034008 3 47 3.2 4.8 0.00 0.00 0.00 66 1012.7
20260506033508 3 61 3.2 9.7 0.00 0.00 0.00 66 1012.6
20260506033012 3 45 3.2 8.0 0.00 0.00 0.00 66 1012.7
20260506032008 4 47 3.2 4.8 0.00 0.00 0.00 66 1012.7
20260506031508 4 51 3.2 8.0 0.00 0.00 0.00 66 1012.6
20260506031008 4 42 4.8 8.0 0.00 0.00 0.00 66 1012.5
20260506030508 4 38 3.2 8.0 0.00 0.00 0.00 66 1012.5
20260506030011 4 43 4.8 8.0 0.00 0.00 0.00 66 1012.6
20260506025509 4 21 4.8 8.0 0.00 0.00 0.00 66 1012.8
20260506025008 4 21 4.8 8.0 0.00 0.00 0.00 66 1012.7
20260506024508 4 11 4.8 4.8 0.00 0.00 0.00 66 1012.6
20260506024008 4 33 4.8 4.8 0.00 0.00 0.00 66 1012.8
20260506023508 4 73 3.2 4.8 0.00 0.00 0.00 65 1012.8
20260506022508 4 302 3.2 4.8 0.00 0.00 0.00 65 1012.7
20260506022008 5 69 3.2 4.8 0.00 0.00 0.00 65 1012.8
20260506021508 5 80 3.2 4.8 0.00 0.00 0.00 65 1012.8
20260506021008 5 32 1.6 8.0 0.00 0.00 0.00 65 1012.7
20260506020508 5 333 4.8 8.0 0.00 0.00 0.00 65 1012.6
20260506020011 5 309 3.2 11.3 0.00 0.00 0.00 65 1012.6
20260506015508 4 324 8.0 12.9 0.00 0.00 0.00 65 1012.6
20260506015008 5 320 9.7 12.9 0.00 0.00 0.00 65 1012.6
20260506014508 5 318 8.0 12.9 0.00 0.00 0.00 65 1012.5
20260506013508 5 316 9.7 12.9 0.00 0.00 0.00 65 1012.7
20260506013011 5 317 9.7 14.5 0.00 0.00 0.00 65 1012.6
20260506012508 5 318 9.7 14.5 0.00 0.00 0.00 64 1012.6
20260506012008 5 321 9.7 16.1 0.00 0.00 0.00 64 1012.6
20260506011508 5 317 8.0 11.3 0.00 0.00 0.00 64 1012.6
20260506011008 5 344 3.2 9.7 0.00 0.00 0.00 64 1012.5
20260506010508 5 337 4.8 9.7 0.00 0.00 0.00 64 1012.6
20260506010011 5 323 4.8 9.7 0.00 0.00 0.00 64 1012.6
20260506005508 5 329 3.2 8.0 0.00 0.00 0.00 64 1012.6
20260506005007 5 293 1.6 8.0 0.00 0.00 0.00 64 1012.6
20260506004508 5 346 3.2 12.9 0.00 0.00 0.00 63 1012.5
20260506004008 5 336 3.2 11.3 0.00 0.00 0.00 63 1012.5
20260506003508 5 345 1.6 11.3 0.00 0.00 0.00 63 1012.6
20260506002508 5 325 4.8 12.9 0.00 0.00 0.00 63 1012.5
20260506001508 5 335 1.6 4.8 0.00 0.00 0.00 63 1012.4
20260506001008 5 343 3.2 9.7 0.00 0.00 0.00 63 1012.4
20260506000508 5 315 3.2 9.7 0.00 0.00 0.00 63 1012.5
20260506000011 5 15 3.2 4.8 0.00 0.00 0.00 62 1012.3
20260505235508 5 27 3.2 9.7 0.00 0.00 0.00 62 1012.4
20260505235008 5 330 3.2 9.7 0.00 0.00 0.00 62 1012.4
20260505234507 5 25 4.8 11.3 0.00 0.00 0.00 62 1012.5
20260505234008 5 350 3.2 12.9 0.00 0.00 0.00 62 1012.4
20260505233011 5 348 4.8 14.5 0.00 0.00 0.00 62 1012.4
20260505232507 5 334 9.7 19.3 0.00 0.00 0.00 62 1012.4
20260505232008 5 332 8.0 16.1 0.00 0.00 0.00 62 1012.4
20260505231507 5 345 8.0 16.1 0.00 0.00 0.00 62 1012.5
20260505230507 5 325 9.7 19.3 0.00 0.00 0.00 62 1012.4
20260505225508 5 323 8.0 14.5 0.00 0.00 0.00 62 1012.5
20260505225007 5 327 4.8 12.9 0.00 0.00 0.00 62 1012.4
20260505224508 5 290 3.2 11.3 0.00 0.00 0.00 61 1012.5
20260505224007 5 325 8.0 19.3 0.00 0.00 0.00 61 1012.4
20260505223507 5 322 9.7 14.5 0.00 0.00 0.00 61 1012.4
20260505223011 5 325 8.0 14.5 0.00 0.00 0.00 61 1012.6
20260505222507 5 321 3.2 20.9 0.00 0.00 0.00 61 1012.6
20260505222008 5 336 4.8 14.5 0.00 0.00 0.00 61 1012.3
20260505221507 5 342 8.0 16.1 0.00 0.00 0.00 61 1012.3
20260505221007 5 335 4.8 16.1 0.00 0.00 0.00 61 1012.5
20260505220012 5 338 11.3 20.9 0.00 0.00 0.00 60 1012.3
20260505215507 5 328 8.0 19.3 0.00 0.00 0.00 60 1012.5
20260505215008 5 327 9.7 20.9 0.00 0.00 0.00 60 1012.5
20260505214507 5 326 8.0 20.9 0.00 0.00 0.00 60 1012.5
20260505214007 6 327 11.3 19.3 0.00 0.00 0.00 60 1012.4
20260505213507 6 326 11.3 20.9 0.00 0.00 0.00 60 1012.3
20260505213011 6 335 11.3 20.9 0.00 0.00 0.00 60 1012.4
20260505212508 6 331 8.0 19.3 0.00 0.00 0.00 60 1012.4
20260505212008 6 318 11.3 19.3 0.00 0.00 0.00 60 1012.4
20260505211008 6 326 8.0 20.9 0.00 0.00 0.00 62 1012.5
20260505210507 6 324 9.7 16.1 0.00 0.00 0.00 62 1012.4
20260505210011 6 324 9.7 16.1 0.00 0.00 0.00 62 1012.3
20260505205508 6 322 11.3 16.1 0.00 0.00 0.00 62 1012.2
20260505205007 6 319 9.7 14.5 0.00 0.00 0.00 62 1012.2
20260505204508 6 319 11.3 19.3 0.00 0.00 0.00 63 1012.2
20260505204007 6 318 12.9 16.1 0.00 0.00 0.00 63 1012.1
20260505203507 6 323 14.5 19.3 0.00 0.00 0.00 63 1012.0
20260505203011 6 318 12.9 19.3 0.00 0.00 0.00 63 1012.1
20260505202507 6 313 14.5 20.9 0.00 0.00 0.00 63 1012.1